Hourly Data Report for September 16, 2020

OTTAWA INTL A
ONTARIO
Current Station Operator: NAVCAN

45°19'00.000" N
75°40'00.000" W
114.90 m
6106001
71628
YOW

Download Data

Hourly Data (September 2020)
Hourly Data Report for September 16, 2020
TIME Temp Definition
°C
Dew Point Definition
°C
Rel Hum Definition
%
Wind Dir Definition
10's deg

Wind Spd Definition
km/h
Visibility Definition
km
Stn Press Definition
kPa
Hmdx Definition


Wind Chill Definition


Weather Definition


00:00 11.2 7.0 75 18 9 24.1 100.43     LegendNANA
01:00 11.2 7.2 76 19 10 24.1 100.33     Cloudy
02:00 10.2 7.4 82 19 10 24.1 100.25     LegendNANA
03:00 10.7 8.4 86 19 13 24.1 100.17     LegendNANA
04:00 12.3 10.2 87 20 16 24.1 100.13     Mostly Cloudy
05:00 13.4 11.0 85 20 17 24.1 100.14     LegendNANA
06:00 14.3 11.8 84 20 20 24.1 100.15     LegendNANA
07:00
08:00 16.8 12.8 77 22 23 24.1 100.14     LegendNANA
09:00 18.3 13.2 72 21 24 24.1 100.09     LegendNANA
10:00 19.6 13.2 67 21 30 24.1 100.05     Mostly Cloudy
11:00 21.1 13.9 63 20 30 24.1 99.96     LegendNANA
12:00 21.4 14.2 63 19 27 24.1 99.90 25   LegendNANA
13:00 21.6 14.5 64 20 25 24.1 99.85 25   Mainly Clear
14:00 21.7 14.2 62 20 23 24.1 99.76 25   LegendNANA
15:00 21.3 13.9 62 20 32 24.1 99.70 25   LegendNANA
16:00 21.2 13.8 63 20 26 24.1 99.59     Mostly Cloudy
17:00 20.0 10.9 55 19 34 24.1 99.55     LegendNANA
18:00 19.0 10.4 57 22 25 24.1 99.61     LegendNANA
19:00 18.8 10.4 58 21 30 24.1 99.65     Mainly Clear
20:00 19.2 9.2 52 22 26 24.1 99.73     LegendNANA
21:00 19.2 9.1 52 23 28 24.1 99.78     LegendNANA
22:00 15.3 10.9 75 34 25 24.1 99.96     Rain
23:00 14.9 11.6 80 34 16 24.1 100.04     LegendNANA

Notes on Data Quality.

Legend

  • E = Estimated
  • M = Missing
  • NA = Not Available*
  • [empty] = Indicates an unobserved value
Date modified: